EW7067 Weather Reports


Display with metric or nautical units.
time (UTC)temp
F
wind
direction
speed
MPH
gust
MPH
rain 1hr
in
rain 24hr
in
rain mn
in
humidity
%
barometer
mb
20260902155554 91 313 1.0 6.0 0.00 0.00 0.00 65 975.9
20260902155055 91 151 1.0 6.0 0.00 0.00 0.00 64 975.9
20260902154553 91 36 1.0 4.0 0.00 0.00 0.00 66 976.0
20260902154054 91 36 0.0 3.0 0.00 0.00 0.00 70 976.0
20260902153554 90 36 1.0 4.0 0.00 0.00 0.00 73 976.0
20260902153054 90 36 1.0 4.0 0.00 0.00 0.00 73 976.0
20260902152553 90 36 1.0 3.0 0.00 0.00 0.00 70 976.0
20260902152053 90 36 1.0 4.0 0.00 0.00 0.00 71 976.0
20260902151551 90 36 1.0 4.0 0.00 0.00 0.00 70 975.9
20260902151045 90 36 1.0 3.0 0.00 0.00 0.00 70 975.9
20260902150538 89 36 0.0 2.0 0.00 0.00 0.00 70 975.9
20260902150032 89 36 0.0 2.0 0.00 0.00 0.00 70 975.9
20260902145614 89 36 1.0 3.0 0.00 0.00 0.00 71 975.9
20260902145021 88 36 1.0 3.0 0.00 0.00 0.00 76 975.9
20260902144011 88 36 0.0 2.0 0.00 0.00 0.00 75 975.8
20260902143503 87 36 0.0 2.0 0.00 0.00 0.00 78 975.8
20260902141944 86 36 1.0 2.0 0.00 0.00 0.00 81 975.9
20260902141446 85 36 1.0 2.0 0.00 0.00 0.00 80 975.8
20260902140943 85 36 1.0 3.0 0.00 0.00 0.00 81 975.9
20260902140441 84 36 0.0 3.0 0.00 0.00 0.00 81 975.8
20260902135941 84 36 0.0 2.0 0.00 0.00 0.00 83 975.8
20260902135437 83 36 0.0 0.0 0.00 0.00 0.00 83 975.8
20260902134935 83 36 0.0 0.0 0.00 0.00 0.00 82 975.8
20260902134435 83 36 0.0 0.0 0.00 0.00 0.00 84 975.8
20260902133935 82 36 0.0 0.0 0.00 0.00 0.00 84 975.8
20260902133433 82 36 0.0 0.0 0.00 0.00 0.00 85 975.8
20260902132933 81 36 0.0 0.0 0.00 0.00 0.00 84 975.8
20260902132432 80 36 0.0 0.0 0.00 0.00 0.00 82 975.8
20260902131932 79 36 0.0 0.0 0.00 0.00 0.00 77 975.8
20260902131429 77 36 0.0 0.0 0.00 0.00 0.00 71 975.8
20260902130927 76 36 0.0 0.0 0.00 0.00 0.00 69 975.8
20260902130426 75 36 0.0 0.0 0.00 0.00 0.00 67 975.8
20260902125923 74 36 0.0 0.0 0.00 0.00 0.00 67 975.8
20260902125423 73 36 0.0 0.0 0.00 0.00 0.00 67 975.8
20260902124923 72 36 0.0 0.0 0.00 0.00 0.00 67 975.8
20260902124422 72 36 0.0 0.0 0.00 0.00 0.00 67 975.8
20260902123923 71 36 0.0 0.0 0.00 0.00 0.00 68 975.8
20260902123417 71 36 0.0 0.0 0.00 0.00 0.00 68 975.8
20260902122911 70 36 0.0 0.0 0.00 0.00 0.00 68 975.8
20260902122406 70 36 0.0 0.0 0.00 0.00 0.00 68 975.8
20260902121859 70 36 0.0 0.0 0.00 0.00 0.00 68 975.7
20260902120847 69 36 0.0 0.0 0.00 0.00 0.00 68 975.7
20260902120341 69 36 0.0 0.0 0.00 0.00 0.00 69 975.7
20260902114824 68 36 0.0 0.0 0.00 0.00 0.00 69 975.5
20260902114317 68 36 0.0 0.0 0.00 0.00 0.00 69 975.5
20260902113811 68 36 0.0 0.0 0.00 0.00 0.00 69 975.4
20260902113305 68 36 0.0 0.0 0.00 0.00 0.00 69 975.3
20260902112800 68 36 0.0 0.0 0.00 0.00 0.00 69 975.3
20260902112255 68 36 0.0 0.0 0.00 0.00 0.00 70 975.3
20260902111749 68 36 0.0 0.0 0.00 0.00 0.00 70 975.2
20260902111241 69 36 0.0 0.0 0.00 0.00 0.00 69 975.2
20260902110735 69 36 0.0 0.0 0.00 0.00 0.00 69 975.1
20260902110230 69 36 0.0 0.0 0.00 0.00 0.00 69 975.2
20260902105723 69 36 0.0 0.0 0.00 0.00 0.00 69 975.2
20260902105217 69 36 0.0 0.0 0.00 0.00 0.00 69 975.2
20260902104711 69 36 0.0 0.0 0.00 0.00 0.00 69 975.2
20260902104205 69 36 0.0 0.0 0.00 0.00 0.00 69 975.2
20260902103153 69 36 0.0 0.0 0.00 0.00 0.00 69 975.3
20260902102647 69 36 0.0 0.0 0.00 0.00 0.00 69 975.3
20260902102141 69 36 0.0 0.0 0.00 0.00 0.00 69 975.3
20260902101636 69 36 0.0 0.0 0.00 0.00 0.00 69 975.3
20260902101128 69 36 0.0 0.0 0.00 0.00 0.00 69 975.3
20260902100623 69 36 0.0 0.0 0.00 0.00 0.00 69 975.1
20260902095105 69 36 0.0 0.0 0.00 0.00 0.00 69 975.0
20260902094600 69 36 0.0 0.0 0.00 0.00 0.00 69 974.9
20260902093547 69 36 0.0 0.0 0.00 0.00 0.00 70 974.9
20260902092537 69 36 0.0 0.0 0.00 0.00 0.00 70 974.8
20260902092029 69 36 0.0 0.0 0.00 0.00 0.00 70 974.7
20260902091523 69 36 0.0 0.0 0.00 0.00 0.00 70 974.7
20260902091017 69 36 0.0 0.0 0.00 0.00 0.00 70 974.7
20260902090512 69 36 0.0 0.0 0.00 0.00 0.00 70 974.8
20260902090005 69 36 0.0 0.0 0.00 0.00 0.00 70 974.7
20260902085459 69 36 0.0 0.0 0.00 0.00 0.00 70 974.7
20260902084447 69 36 0.0 0.0 0.00 0.00 0.00 71 974.7
20260902083436 69 36 0.0 0.0 0.00 0.00 0.00 71 974.7
20260902082929 70 36 0.0 0.0 0.00 0.00 0.00 71 974.8
20260902082425 70 36 0.0 0.0 0.00 0.00 0.00 71 974.7
20260902081918 70 36 0.0 0.0 0.00 0.00 0.00 71 974.7
20260902081411 70 36 0.0 0.0 0.00 0.00 0.00 71 974.7
20260902080906 70 36 0.0 0.0 0.00 0.00 0.00 71 974.7
20260902075854 70 36 0.0 0.0 0.00 0.00 0.00 71 974.6
20260902074841 70 36 0.0 0.0 0.00 0.00 0.00 71 974.6
20260902074335 70 36 0.0 0.0 0.00 0.00 0.00 71 974.5
20260902072819 70 36 0.0 0.0 0.00 0.00 0.00 72 974.5
20260902072312 70 36 0.0 0.0 0.00 0.00 0.00 72 974.6
20260902071805 71 36 0.0 0.0 0.00 0.00 0.00 72 974.6
20260902071259 71 36 0.0 0.0 0.00 0.00 0.00 71 974.5
20260902070753 71 36 0.0 0.0 0.00 0.00 0.00 72 974.6
20260902065741 71 36 0.0 0.0 0.00 0.00 0.00 72 974.5
20260902065236 71 36 0.0 0.0 0.00 0.00 0.00 72 974.5
20260902064729 71 36 0.0 0.0 0.00 0.00 0.00 73 974.5
20260902063717 71 36 0.0 0.0 0.00 0.00 0.00 73 974.5
20260902063211 71 36 0.0 0.0 0.00 0.00 0.00 73 974.5
20260902062706 71 36 0.0 0.0 0.00 0.00 0.00 73 974.6
20260902062159 71 36 0.0 0.0 0.00 0.00 0.00 74 974.5
20260902060641 71 36 0.0 0.0 0.00 0.00 0.00 74 974.6
20260902060139 71 36 0.0 0.0 0.00 0.00 0.00 74 974.6
20260902055636 71 36 0.0 0.0 0.00 0.00 0.00 75 974.6
20260902054633 71 36 0.0 0.0 0.00 0.00 0.00 75 974.5
20260902054134 71 36 0.0 0.0 0.00 0.00 0.00 75 974.6
20260902053633 71 36 0.0 0.0 0.00 0.00 0.00 75 974.6
20260902053132 72 36 0.0 0.0 0.00 0.00 0.00 76 974.6
20260902052133 72 36 0.0 0.0 0.00 0.00 0.00 76 974.5
20260902051633 72 36 0.0 0.0 0.00 0.00 0.00 77 974.5
20260902051133 72 36 0.0 0.0 0.00 0.00 0.00 77 974.4
20260902050129 72 36 0.0 0.0 0.00 0.00 0.00 77 974.5
20260902045628 72 36 0.0 0.0 0.00 0.00 0.00 77 974.5
20260902045128 73 36 0.0 0.0 0.00 0.00 0.00 77 974.5
20260902044629 73 36 0.0 0.0 0.00 0.00 0.00 77 974.5
20260902044128 73 36 0.0 0.0 0.00 0.00 0.00 77 974.5
20260902043628 73 36 0.0 0.0 0.00 0.00 0.00 78 974.5
20260902043128 73 36 0.0 0.0 0.00 0.00 0.00 77 974.5
20260902042630 73 36 0.0 0.0 0.00 0.00 0.00 78 974.5
20260902042129 73 36 0.0 0.0 0.00 0.00 0.00 78 974.5
20260902041629 73 36 0.0 0.0 0.00 0.00 0.00 77 974.6
20260902041128 73 36 0.0 0.0 0.00 0.00 0.00 77 974.6
20260902040628 73 36 0.0 0.0 0.00 0.00 0.00 77 974.6
20260902040126 73 36 0.0 0.0 0.00 0.00 0.00 77 974.5
20260902034117 74 36 0.0 0.0 0.00 0.00 0.00 76 974.5
20260902033615 74 36 0.0 0.0 0.00 0.00 0.00 76 974.5
20260902033116 74 36 0.0 0.0 0.00 0.00 0.00 76 974.5
20260902032611 74 36 0.0 0.0 0.00 0.00 0.00 77 974.5
20260902032109 74 36 0.0 0.0 0.00 0.00 0.00 77 974.6
20260902031608 74 36 0.0 0.0 0.00 0.00 0.00 77 974.6
20260902030106 74 36 0.0 0.0 0.00 0.00 0.00 79 974.6
20260902025607 75 36 0.0 0.0 0.00 0.00 0.00 79 974.6
20260902025107 75 36 0.0 0.0 0.00 0.00 0.00 79 974.6
20260902024607 75 36 0.0 0.0 0.00 0.00 0.00 80 974.6
20260902023603 75 36 0.0 0.0 0.00 0.00 0.00 80 974.6
20260902023103 76 36 0.0 0.0 0.00 0.00 0.00 80 974.5
20260902022102 76 36 0.0 0.0 0.00 0.00 0.00 80 974.4
20260902021603 76 36 0.0 0.0 0.00 0.00 0.00 81 974.4
20260902021104 76 36 0.0 0.0 0.00 0.00 0.00 81 974.4
20260902020103 76 36 0.0 0.0 0.00 0.00 0.00 83 974.3
20260902015558 76 36 0.0 0.0 0.00 0.00 0.00 83 974.2
20260902015059 76 36 0.0 0.0 0.00 0.00 0.00 84 974.2
20260902014559 76 36 0.0 0.0 0.00 0.00 0.00 84 974.0
20260902014059 77 36 0.0 0.0 0.00 0.00 0.00 84 974.0
20260902013559 77 36 0.0 0.0 0.00 0.00 0.00 84 973.9
20260902013058 77 36 0.0 0.0 0.00 0.00 0.00 85 973.9
20260902012559 77 36 0.0 0.0 0.00 0.00 0.00 85 973.9
20260902012059 77 36 0.0 0.0 0.00 0.00 0.00 85 973.9
20260902011558 77 36 0.0 0.0 0.00 0.00 0.00 85 973.9
20260902011057 77 36 0.0 0.0 0.00 0.00 0.00 86 973.9
20260902010556 78 36 0.0 0.0 0.00 0.00 0.00 86 973.9
20260902010054 78 36 0.0 0.0 0.00 0.00 0.00 86 973.7
20260902005552 78 36 0.0 0.0 0.00 0.00 0.00 86 973.6
20260902005054 78 36 0.0 0.0 0.00 0.00 0.00 86 973.6
20260902004554 78 36 0.0 0.0 0.00 0.00 0.00 86 973.6
20260902004052 79 36 0.0 0.0 0.00 0.00 0.00 85 973.6
20260902003553 79 36 0.0 0.0 0.00 0.00 0.00 85 973.5
20260902003050 79 36 0.0 0.0 0.00 0.00 0.00 85 973.6
20260902002548 79 36 0.0 0.0 0.00 0.00 0.00 85 973.5
20260902002046 80 36 0.0 0.0 0.00 0.00 0.00 85 973.5
20260902001046 80 36 0.0 0.0 0.00 0.00 0.00 85 973.6
20260902000544 81 36 0.0 0.0 0.00 0.00 0.00 85 973.5
20260901235040 83 36 0.0 0.0 0.00 0.00 0.00 83 973.5
20260901234540 84 36 0.0 0.0 0.00 0.00 0.00 82 973.5
20260901234035 84 36 0.0 0.0 0.00 0.00 0.00 80 973.5
20260901233528 85 36 0.0 0.0 0.00 0.00 0.00 81 973.5
20260901233022 86 36 0.0 0.0 0.00 0.00 0.00 80 973.6
20260901232516 87 36 0.0 0.0 0.00 0.00 0.00 79 973.6
20260901231504 88 36 0.0 0.0 0.00 0.00 0.00 76 973.7
20260901230956 88 36 0.0 0.0 0.00 0.00 0.00 75 973.7
20260901225948 89 36 0.0 0.0 0.00 0.00 0.00 74 973.8
20260901225440 89 36 0.0 0.0 0.00 0.00 0.00 74 973.7
20260901224934 89 36 0.0 0.0 0.00 0.00 0.00 73 973.8
20260901224428 90 36 0.0 0.0 0.00 0.00 0.00 71 973.7
20260901223923 91 36 0.0 0.0 0.00 0.00 0.00 69 973.7
20260901223416 91 36 0.0 0.0 0.00 0.00 0.00 66 973.6
20260901222911 92 36 0.0 0.0 0.00 0.00 0.00 66 973.7
20260901221352 94 36 0.0 2.0 0.00 0.00 0.00 65 973.5
20260901220846 93 36 0.0 2.0 0.00 0.00 0.00 63 973.6
20260901220340 93 36 0.0 1.0 0.00 0.00 0.00 62 973.5
20260901215834 93 36 0.0 1.0 0.00 0.00 0.00 66 973.5
20260901215328 94 36 0.0 4.0 0.00 0.00 0.00 67 973.5
20260901214822 93 36 0.0 4.0 0.00 0.00 0.00 66 973.6
20260901214317 93 36 0.0 0.0 0.00 0.00 0.00 68 973.6
20260901213810 92 36 0.0 0.0 0.00 0.00 0.00 66 973.6
20260901213304 91 36 0.0 0.0 0.00 0.00 0.00 70 973.7
20260901212759 90 36 0.0 0.0 0.00 0.00 0.00 73 973.7
20260901212252 89 36 0.0 0.0 0.00 0.00 0.00 72 973.8
20260901211746 89 36 0.0 1.0 0.00 0.00 0.00 72 973.8
20260901211240 90 36 0.0 1.0 0.00 0.00 0.00 69 973.8
20260901210734 91 36 0.0 1.0 0.00 0.00 0.00 67 973.7
20260901210229 92 36 1.0 4.0 0.00 0.00 0.00 65 973.7
20260901205723 93 36 2.0 6.0 0.00 0.00 0.00 62 973.7
20260901205216 94 36 3.0 7.0 0.00 0.00 0.00 61 973.7
20260901204711 95 42 2.0 7.0 0.00 0.00 0.00 62 973.7
20260901203659 95 78 2.0 8.0 0.00 0.00 0.00 60 973.7
20260901203152 95 281 2.0 8.0 0.00 0.00 0.00 57 973.8
20260901202646 94 29 1.0 4.0 0.00 0.00 0.00 61 973.8
20260901202140 94 74 1.0 4.0 0.00 0.00 0.00 59 973.8
20260901201634 94 351 1.0 4.0 0.00 0.00 0.00 59 973.8
20260901200622 94 330 2.0 6.0 0.00 0.00 0.00 60 973.9
20260901200117 94 248 2.0 6.0 0.00 0.00 0.00 62 973.9
20260901195611 94 316 2.0 7.0 0.00 0.00 0.00 60 974.0
20260901195104 93 313 2.0 7.0 0.00 0.00 0.00 63 974.1
20260901194558 93 323 2.0 6.0 0.00 0.00 0.00 62 974.1
20260901193547 93 287 4.0 8.0 0.00 0.00 0.00 63 974.2
20260901193041 93 301 4.0 9.0 0.00 0.00 0.00 63 974.2
20260901192535 93 288 3.0 9.0 0.00 0.00 0.00 63 974.3
20260901192028 93 305 3.0 9.0 0.00 0.00 0.00 62 974.3
20260901191522 92 321 3.0 10.0 0.00 0.00 0.00 60 974.4
20260901191018 92 315 2.0 10.0 0.00 0.00 0.00 62 974.4
20260901190512 92 346 2.0 7.0 0.00 0.00 0.00 64 974.5
20260901190005 92 298 4.0 9.0 0.00 0.00 0.00 61 974.5
20260901185458 93 301 4.0 9.0 0.00 0.00 0.00 65 974.6
20260901184952 93 296 2.0 8.0 0.00 0.00 0.00 62 974.6
20260901184448 93 336 2.0 4.0 0.00 0.00 0.00 65 974.6
20260901183940 92 137 1.0 4.0 0.00 0.00 0.00 61 974.7
20260901183435 92 36 1.0 3.0 0.00 0.00 0.00 60 974.7
20260901182936 92 36 2.0 7.0 0.00 0.00 0.00 65 974.7
20260901182434 92 293 3.0 8.0 0.00 0.00 0.00 62 974.7
20260901181931 92 344 2.0 8.0 0.00 0.00 0.00 64 974.7
20260901181432 92 346 2.0 5.0 0.00 0.00 0.00 63 974.8
20260901180430 92 319 2.0 6.0 0.00 0.00 0.00 62 974.9
20260901175930 92 321 1.0 4.0 0.00 0.00 0.00 63 974.9
20260901175430 92 19 2.0 4.0 0.00 0.00 0.00 61 974.9
20260901174928 92 319 2.0 8.0 0.00 0.00 0.00 62 975.0
20260901173930 92 31 2.0 6.0 0.00 0.00 0.00 64 975.0
20260901173426 91 317 2.0 6.0 0.00 0.00 0.00 65 975.0
20260901172926 91 322 3.0 7.0 0.00 0.00 0.00 61 975.0
20260901172426 91 307 3.0 8.0 0.00 0.00 0.00 62 975.0
20260901171926 91 327 3.0 8.0 0.00 0.00 0.00 62 975.1
20260901171426 91 304 3.0 8.0 0.00 0.00 0.00 62 975.2
20260901170924 91 294 3.0 8.0 0.00 0.00 0.00 63 975.2
20260901170423 91 312 3.0 9.0 0.00 0.00 0.00 61 975.2
20260901165918 91 307 4.0 9.0 0.00 0.00 0.00 62 975.3
20260901165412 90 316 3.0 8.0 0.00 0.00 0.00 66 975.3
20260901164906 91 274 2.0 7.0 0.00 0.00 0.00 63 975.4
20260901164359 91 44 2.0 7.0 0.00 0.00 0.00 63 975.4
20260901163854 90 30 3.0 12.0 0.00 0.00 0.00 65 975.5
20260901162842 91 318 1.0 6.0 0.00 0.00 0.00 65 975.6
20260901162337 91 67 1.0 6.0 0.00 0.00 0.00 65 975.7
20260901161830 90 72 1.0 4.0 0.00 0.00 0.00 63 975.7
20260901161325 90 17 1.0 4.0 0.00 0.00 0.00 66 975.7
20260901160312 90 231 2.0 6.0 0.00 0.00 0.00 68 975.8